GW5681 Weather Reports


time (UTC)temp
C
wind
direction
speed
KPH
gust
KPH
rain 1hr
cm
rain 24hr
cm
rain mn
cm
humidity
%
barometer
mb
20260503211515 9 289 1.6 6.4 0.10 0.13 0.13 85 1008.4
20260503210518 8 300 1.6 4.8 0.10 0.13 0.13 85 1008.5
20260503205516 9 306 3.2 8.0 0.10 0.13 0.13 84 1008.7
20260503204516 9 276 3.2 8.0 0.10 0.10 0.10 81 1009.1
20260503203516 10 279 4.8 14.5 0.08 0.08 0.08 77 1009.2
20260503202516 10 295 3.2 9.7 0.08 0.08 0.08 76 1009.0
20260503201517 10 279 4.8 12.9 0.05 0.05 0.05 73 1009.1
20260503200516 11 280 3.2 14.5 0.03 0.03 0.03 73 1009.1
20260503195516 11 289 4.8 9.7 0.03 0.03 0.03 68 1009.2
20260503194517 12 288 4.8 14.5 0.00 0.00 0.00 59 1008.9
20260503193517 12 298 4.8 16.1 0.00 0.00 0.00 56 1008.6
20260503192517 13 298 6.4 16.1 0.00 0.00 0.00 54 1008.8
20260503191517 13 283 6.4 17.7 0.00 0.00 0.00 51 1008.5
20260503190518 13 286 4.8 12.9 0.00 0.00 0.00 49 1008.4
20260503185517 13 308 4.8 11.3 0.00 0.00 0.00 48 1008.5
20260503184518 13 281 4.8 14.5 0.00 0.00 0.00 47 1008.5
20260503183517 13 296 4.8 16.1 0.00 0.00 0.00 47 1008.7
20260503182518 15 294 3.2 12.9 0.00 0.00 0.00 45 1008.6
20260503181538 15 287 3.2 9.7 0.00 0.00 0.00 44 1008.5
20260503180516 15 290 4.8 11.3 0.00 0.00 0.00 44 1008.6
20260503175518 15 287 4.8 12.9 0.00 0.00 0.00 44 1008.5
20260503174516 15 295 4.8 11.3 0.00 0.00 0.00 45 1008.7
20260503173516 14 323 4.8 12.9 0.00 0.00 0.00 47 1009.1
20260503172516 15 281 4.8 11.3 0.00 0.00 0.00 44 1009.4
20260503171516 15 319 4.8 9.7 0.00 0.00 0.00 45 1009.1
20260503170516 15 278 4.8 14.5 0.00 0.00 0.00 44 1009.6
20260503150559 12 311 4.8 14.5 0.00 0.00 0.00 44 1010.8
20260503130517 5 306 3.2 6.4 0.00 0.00 0.00 70 1012.1
20260503110516 0 277 0.0 3.2 0.00 0.00 0.00 86 1012.2
20260503081515 0 305 1.6 3.2 0.00 0.00 0.00 80 1012.9
20260503080516 0 319 1.6 3.2 0.00 0.00 0.00 80 1012.9
20260503072516 -1 277 1.6 6.4 0.00 0.00 0.00 77 1013.1
20260503071556 -1 298 1.6 4.8 0.00 0.00 0.00 76 1013.1
20260503070517 -1 294 1.6 3.2 0.00 0.00 0.00 76 1013.2
20260503054538 -1 321 0.0 3.2 0.00 0.00 0.00 76 1014.0
20260503053518 -1 289 0.0 4.8 0.00 0.00 0.00 75 1014.1
20260503052518 -1 305 0.0 3.2 0.00 0.00 0.00 75 1014.1
20260503051519 -1 286 0.0 3.2 0.00 0.00 0.00 75 1014.2
20260503050518 0 292 1.6 3.2 0.00 0.00 0.00 71 1014.1
20260503045519 0 290 1.6 3.2 0.00 0.00 0.00 73 1014.2
20260503044516 0 248 1.6 3.2 0.00 0.00 0.00 72 1014.3
20260503043516 -1 276 1.6 4.8 0.00 0.00 0.00 73 1014.3
20260503042516 -1 280 0.0 3.2 0.00 0.00 0.00 74 1014.4
20260503041516 -1 63 0.0 1.6 0.00 0.00 0.00 75 1014.5
20260503035516 -1 303 0.0 3.2 0.00 0.00 0.00 77 1014.5
20260503034517 -1 254 0.0 3.2 0.00 0.00 0.00 76 1014.6
20260503033537 -1 285 1.6 3.2 0.00 0.00 0.00 74 1014.6
20260503032516 -1 275 1.6 3.2 0.00 0.00 0.00 76 1014.6
20260503031517 0 282 1.6 4.8 0.00 0.00 0.00 75 1014.7
20260503030518 0 298 1.6 3.2 0.00 0.00 0.00 76 1014.7
20260503025517 0 281 0.0 3.2 0.00 0.00 0.00 75 1014.8
20260503024517 0 301 1.6 4.8 0.00 0.00 0.00 73 1014.9
20260503023518 0 301 1.6 3.2 0.00 0.00 0.00 74 1015.0
20260503022539 0 309 1.6 4.8 0.00 0.00 0.00 72 1015.0
20260503021518 0 306 1.6 3.2 0.00 0.00 0.00 73 1015.0
20260503020538 0 305 1.6 3.2 0.00 0.00 0.00 72 1015.0
20260503015518 0 312 1.6 3.2 0.00 0.00 0.00 71 1015.0
20260503014519 1 304 1.6 3.2 0.00 0.00 0.00 66 1014.9
20260503013516 1 302 1.6 3.2 0.00 0.00 0.00 66 1014.9
20260503012516 1 303 0.0 3.2 0.00 0.00 0.00 64 1014.9
20260503011515 2 296 0.0 1.6 0.00 0.00 0.00 60 1014.8
20260503010516 2 307 0.0 4.8 0.00 0.00 0.00 58 1014.8
20260503005536 3 298 0.0 1.6 0.00 0.00 0.00 57 1014.8
20260503004516 3 280 0.0 3.2 0.00 0.00 0.00 53 1014.6
20260503003516 4 277 0.0 3.2 0.00 0.00 0.00 51 1014.4
20260503002517 5 272 1.6 4.8 0.00 0.00 0.00 51 1014.3
20260503001517 5 261 0.0 3.2 0.00 0.00 0.00 49 1014.3
20260503000517 6 311 0.0 4.8 0.00 0.00 0.00 48 1014.1
20260502235516 6 288 1.6 4.8 0.00 0.00 0.00 48 1014.0
20260502234518 6 187 1.6 4.8 0.00 0.00 0.00 48 1013.9
20260502233518 6 196 1.6 4.8 0.00 0.00 0.00 47 1013.8
20260502232517 6 272 3.2 9.7 0.00 0.00 0.00 47 1013.9
20260502231518 6 313 1.6 6.4 0.00 0.00 0.00 48 1013.9
20260502230517 6 273 1.6 6.4 0.00 0.00 0.00 49 1014.0
20260502225518 6 260 3.2 9.7 0.00 0.00 0.00 48 1014.0
20260502224518 6 225 1.6 6.4 0.00 0.00 0.00 48 1014.0
20260502223538 6 201 1.6 6.4 0.00 0.00 0.00 50 1013.9
20260502222515 6 310 3.2 11.3 0.00 0.00 0.00 49 1014.0
20260502221537 6 346 3.2 8.0 0.00 0.00 0.00 50 1013.9
20260502220516 6 209 3.2 6.4 0.00 0.00 0.00 51 1014.0
20260502215516 6 282 3.2 8.0 0.00 0.00 0.00 52 1013.8
20260502214516 6 250 3.2 11.3 0.00 0.00 0.00 51 1013.8
20260502213536 5 267 3.2 9.7 0.00 0.00 0.00 52 1013.9
20260502212517 5 299 3.2 9.7 0.00 0.00 0.00 52 1014.1